Location: Alexander
(41.3564°N, 81.5960°W)
Time: 09:32:28
(UTC+00:00)

Cosmos 1092 Rocket - Pass Details

Date: 24 January 2021
Orbit: 954 x 995 km, 83.0° (Epoch: 02 March)

Event Time Altitude Azimuth Distance (km) Brightness Sun altitude
Rises 23:44:12 0° 180° (S) 3,650 7.2 -13.4°
Reaches altitude 10° 23:46:42 10° 179° (S) 2,701 6.5 -13.9°
Maximum altitude 23:52:52 76° 95° (E) 993 3.9 -15.0°
Drops below altitude 10° 23:59:01 10° 11° (N) 2,697 6.1 -16.1°
Sets 00:01:31 0° 10° (N) 3,644 6.8 -16.6°
